sat.trackr.live / text

‹ back to catalog

STARLINK-3821

NORAD 52357 · 2022-045AC

PAYLOAD ACTIVE UNKNOWN

§ Identity

Operator
Country
US
Launch date
2022-04-29
Launch site
AFETR
Launch vehicle
Mass (kg)
RCS (m²)

Purposes: comms

External: N2YO · Heavens-Above · Gunter

§ Orbital elements

Epoch: 2026-09-20T01:36:01.291104Z

Period
93.85 min
Inclination
53.1617°
Eccentricity
0.0000845
Mean motion
15.34394827 rev/d
Perigee alt
462.1 km
Apogee alt
463.3 km
Semi-major
6,840.9 km
B*
-4.4045e-6
RAAN
31.5325°
Arg perigee
76.9751°
Mean anomaly
283.1346°
Rev number
24,533

§ Raw data

STARLINK-38211 52357U 22045AC  26263.06668161 -.00000525  00000+0 -44045-5 0  99932 52357  53.1617  31.5325 0000845  76.9751 283.1346 15.34394827245338

JSON: /api/v1/satellites/52357 · /tle

For live sub-satellite position, see the globe view (requires WebGL).

§ Visibility from observer

Set your observer location to see the next 7 days of passes ≥ 10°. The values pass through the URL so the page stays shareable.

No JS? Fill the form by hand. The geolocation button needs JavaScript.